Location: Strawberry
(45.6646°N, 111.9596°W)
Time: 22:32:10
(UTC+00:00)

Courier 1B - Pass Details

Date: 08 October 2022
Orbit: 962 x 1209 km, 28.3° (Epoch: 29 November)

Event Time Altitude Azimuth Distance (km) Brightness Sun altitude
Rises 21:17:56 0° 241° (WSW) 4,076 11.7 31.4°
Reaches altitude 10° 21:21:40 10° 225° (SW) 3,084 11.7 31.0°
Maximum altitude 21:26:52 20° 182° (S) 2,366 10.6 30.5°
Drops below altitude 10° 21:31:55 10° 138° (SE) 2,970 10.2 29.9°
Sets 21:35:25 0° 123° (ESE) 3,881 10.6 29.5°
